Flag for Germany Weather past 2 weeks in Ludwigsfelde, Brandenburg, Germany

Now
53 °F

Low clouds.


Feels Like: 49 °F
Forecast: 40 / 43 °F
Wind: 9 mph from Southwest

Location: Potsdam

Current Time: Dec 19, 2014 at 10:50:47 AM

Latest Report: Dec 19, 2014 at 10:00 AM


Visibility: 17 mi

Pressure: 29.71 "Hg

Humidity: 88%

Dew point: 49 °F

Location of LudwigsfeldeLocation

Historic Weather in Ludwigsfelde — Graph

°F

Ludwigsfelde temperature yesterday

Maximum temperature yesterday: 51 °F (at 11:00 PM)
Minimum temperature yesterday: 41 °F (at 12:00 AM)
Average temperature yesterday: 47 °F

Past Weeks' High & Low Weather Summary

 TemperatureHumidityPressure
High53 °F (Dec 19, 2:00 AM)100% (Dec 7, 10:00 AM)30.39 "Hg (Dec 7, 10:00 AM)
Low28 °F (Dec 9, 5:00 AM)73% (Dec 12, 5:00 PM)29.38 "Hg (Dec 12, 6:00 PM)
Average38 °F91%29.93 "Hg
* Reported Dec 4 9:00 AM — Dec 19 9:00 AM, Ludwigsfelde, Weather by CustomWeather, © 2014

Note: Actual official high and low records may vary slightly from our data, if they occured in-between our weather recording intervals... More about our weather records

Advertising

Ludwigsfelde weather history for previous 24 hours

 ConditionsComfort  
Time TempWeatherWind HumidityBarometerVisibility
9:00 AM
Dec 19
52 °FLow clouds.8 mph92%29.72 "Hg14 mi
8:00 AM52 °FDrizzle. Low clouds.8 mph94%29.73 "Hg6 mi
7:00 AM52 °FLight rain. Overcast.8 mph94%29.73 "Hg19 mi
6:00 AM52 °FOvercast.8 mph95%29.73 "Hg16 mi
5:00 AM52 °FLight rain. Overcast.9 mph96%29.74 "Hg10 mi
4:00 AM52 °FLight rain. Overcast.9 mph97%29.74 "Hg10 mi
3:00 AM53 °FLight rain. Overcast.9 mph92%29.74 "Hg11 mi
2:00 AM53 °FOvercast.10 mph93%29.74 "Hg12 mi
1:00 AM53 °FOvercast.8 mph96%29.73 "Hg14 mi
12:00 AM51 °FRain. Low clouds.7 mph99%29.72 "Hg4 mi
11:00 PM
Dec 18
51 °FLight rain. Low clouds.8 mph98%29.72 "Hg11 mi
10:00 PM51 °FOvercast.9 mph98%29.71 "Hg12 mi
9:00 PM50 °FLight rain. Low clouds.8 mph99%29.71 "Hg4 mi
8:00 PM50 °FLight rain. Low clouds.8 mph97%29.72 "Hg7 mi
7:00 PM49 °FLight rain. Overcast.7 mph97%29.73 "Hg11 mi
6:00 PM49 °FLow clouds.6 mph95%29.73 "Hg22 mi
5:00 PM50 °FDrizzle. Overcast.7 mph92%29.75 "Hg10 mi
4:00 PM50 °FOvercast.6 mph91%29.75 "Hg19 mi
3:00 PM50 °FOvercast.6 mph90%29.76 "Hg16 mi
2:00 PM49 °FOvercast.5 mph92%29.78 "Hg12 mi
1:00 PM50 °FOvercast.6 mph93%29.78 "Hg11 mi
12:00 PM48 °FLow clouds.7 mph95%29.80 "Hg9 mi
11:00 AM47 °FDrizzle. Low clouds.6 mph95%29.81 "Hg7 mi
10:00 AM46 °FOvercast.6 mph95%29.81 "Hg7 mi
Weather by CustomWeather, © 2014

See weather overviewHow to use our weather pages